Location: D�derode
(51.8092°N, 10.1065°E)
Time: 16:59:03
(UTC+00:00)

X-37B - Pass Details

Date: 18 April 2021
Orbit: 386 x 389 km, 45.0° (Epoch: 08 May)

Event Time Altitude Azimuth Distance (km) Brightness Sun altitude
Exits shadow 03:16:43 10° 207° (SSW) 1,417 2.9 -9.2°
Reaches altitude 10° 03:16:44 10° 207° (SSW) 1,411 2.9 -9.2°
Maximum altitude 03:18:55 17° 163° (SSE) 1,061 2.7 -8.9°
Drops below altitude 10° 03:21:06 10° 120° (ESE) 1,413 3.8 -8.6°
Sets 03:23:37 0° 99° (E) 2,269 5.4 -8.3°
